User: anonymous   Login
Location: Ottawa
(45.4170°N, 75.7000°W)
Time: 20:13:21
(UTC-04:00)
Language:

Aureole 3 Rocket - Orbit

View from above orbital plane
View from above orbital plane
View from above satellite
View from above satellite

Ground track
Ground track

The orbit data is extracted from the following two-line orbital elements,

1 12849U 81094B   17080.88976672 +.00000212 +00000-0 +19179-4 0  9991
2 12849 082.4921 233.7231 0902353 289.7921 060.8176 13.50070531730163
Epoch (UTC): 21 March 2017 21:21:15
Eccentricity: 0.0902353
inclination: 82.4921°
perigee height: 400 km
apogee height: 1744 km
right ascension of ascending node: 233.7231°
argument of perigee: 289.7921°
revolutions per day: 13.50070531
mean anomaly at epoch: 60.8176°
orbit number at epoch: 73016

The dashed part of the orbit path shows where the satellite is in the earth's shadow,  

DLR